Weather History for Langdon, ND

Change the Weather History Date:

Wednesday, February 6, 2013

  Actual Average (KDVL) Record (KDVL)
Temperature  
Mean Temperature 9 °F -  
Max Temperature 17 °F 18 °F 45 °F (1990)
Min Temperature 1 °F 1 °F -26 °F (1967)
Degree Days  
Heating Degree Days 56    
Moisture  
Dew Point 9 °F    
Average Humidity 91    
Maximum Humidity 100    
Minimum Humidity 85    
Precipitation  
Precipitation 0.85 in - - ()
Sea Level Pressure  
Sea Level Pressure 29.92 in    
Wind  
Wind Speed 12 mph (East)    
Max Wind Speed 20 mph    
Max Gust Speed 24 mph    
Visibility 7 miles    
Events Rain , Snow    
Averages and records for this station are not official NWS values.
T = Trace of Precipitation, MM = Missing Value Source: NWS Daily Summary

Daily Weather History Graph

Daily Weather History Graph

Search for Another Location

Airport:

Trip Planner

Search our weather history database for the weather conditions in past years. The results will help you decide how hot, cold, wet, or windy it might be!

Date:

Astronomy

Feb. 06, 2013 Rise Set
Actual Time 7:55 AM CST 5:40 PM CST
Civil Twilight 7:22 AM CST 6:13 PM CST
Nautical Twilight 6:45 AM CST 6:51 PM CST
Astronomical Twilight 6:08 AM CST 7:27 PM CST
Moon 4:50 AM CST (2/6) 1:50 PM CST (2/6)
Length of Visible Light 10h 51m
Length of Day
9h 44m
Waning Crescent, 17% of the Moon is Illuminated
Feb 6
Waning Crescent
Feb 10
New
Feb 17
First Quarter
Feb 25
Full
Mar 4
Last Quarter

Hourly Weather History & Observations

Time (CST) Temp. Windchill Dew Point Humidity Pressure Visibility Wind Dir Wind Speed Gust Speed Precip Events Conditions
12:15 AM 8.6 °F -7.0 °F 6.8 °F 92% 29.87 in 10.0 mi South 12.7 mph - N/A   Mostly Cloudy
12:35 AM 8.6 °F -6.3 °F 6.8 °F 92% 29.88 in 10.0 mi SSW 11.5 mph - N/A   Mostly Cloudy
1:15 AM 8.6 °F -7.0 °F 6.8 °F 92% 29.88 in 10.0 mi SSW 12.7 mph - N/A   Overcast
1:35 AM 8.6 °F -7.7 °F 6.8 °F 92% 29.88 in 10.0 mi SSW 13.8 mph - N/A   Mostly Cloudy
2:15 AM 6.8 °F -8.6 °F 5.0 °F 92% 29.86 in 10.0 mi SSW 11.5 mph - N/A   Overcast
2:35 AM 6.8 °F -8.6 °F 5.0 °F 92% 29.86 in 10.0 mi South 11.5 mph - N/A   Overcast
2:55 AM 8.6 °F -7.0 °F 6.8 °F 92% 29.86 in 10.0 mi South 12.7 mph - N/A   Overcast
3:15 AM 10.4 °F -4.1 °F 8.6 °F 92% 29.84 in 10.0 mi SSW 11.5 mph - N/A   Overcast
3:35 AM 12.2 °F -1.0 °F 10.4 °F 92% 29.84 in 10.0 mi SSW 10.4 mph - N/A   Overcast
3:55 AM 12.2 °F -1.0 °F 10.4 °F 92% 29.83 in 10.0 mi SSW 10.4 mph - N/A   Overcast
4:15 AM 14.0 °F 2.0 °F 10.4 °F 86% 29.83 in 10.0 mi SSW 9.2 mph - N/A   Overcast
4:35 AM 14.0 °F 2.0 °F 10.4 °F 86% 29.83 in 10.0 mi SSW 9.2 mph - N/A   Overcast
4:55 AM 14.0 °F 2.0 °F 12.2 °F 93% 29.83 in 10.0 mi South 9.2 mph - N/A   Overcast
5:15 AM 14.0 °F 2.9 °F 14.0 °F 100% 29.83 in 9.0 mi South 8.1 mph - N/A   Overcast
5:35 AM 15.8 °F 5.1 °F 14.0 °F 93% 29.83 in 7.0 mi South 8.1 mph - N/A   Overcast
5:55 AM 15.8 °F 5.1 °F 15.8 °F 100% 29.83 in 4.0 mi South 8.1 mph - N/A Snow Light Snow
6:15 AM 15.8 °F 7.2 °F 15.8 °F 100% 29.83 in 3.0 mi SSE 5.8 mph - N/A Snow Light Snow
6:35 AM 17.6 °F 8.2 °F 15.8 °F 93% 29.83 in 3.0 mi SE 6.9 mph - N/A Snow Light Snow
6:55 AM 17.6 °F 8.2 °F 17.6 °F 100% 29.83 in 4.0 mi SSE 6.9 mph - 0.01 in Snow Light Snow
7:15 AM 17.6 °F 8.2 °F 17.6 °F 100% 29.83 in 5.0 mi SSE 6.9 mph - N/A Snow Light Snow
7:35 AM 17.6 °F 9.3 °F 17.6 °F 100% 29.83 in 4.0 mi SE 5.8 mph - 0.01 in Snow Light Snow
7:55 AM 17.6 °F 7.3 °F 17.6 °F 100% 29.84 in 1.2 mi SSE 8.1 mph - 0.04 in Snow Light Snow
8:15 AM 17.6 °F 6.4 °F 17.6 °F 100% 29.84 in 0.8 mi SE 9.2 mph - 0.04 in Snow Light Snow
8:35 AM 17.6 °F 5.0 °F 17.6 °F 100% 29.83 in 2.5 mi SE 11.5 mph - 0.06 in Snow Light Snow
9:15 AM 17.6 °F 5.0 °F 15.8 °F 93% 29.84 in 0.8 mi East 11.5 mph - 0.04 in Snow Light Snow
9:35 AM 15.8 °F 1.4 °F 14.0 °F 93% 29.84 in 1.5 mi East 13.8 mph - 0.09 in Snow Light Snow
9:55 AM 15.8 °F 1.4 °F 14.0 °F 93% 29.85 in 3.0 mi East 13.8 mph - 0.10 in Snow Light Snow
10:15 AM 14.0 °F 0.5 °F 12.2 °F 93% 29.86 in 1.5 mi East 11.5 mph - 0.03 in Snow Light Snow
10:35 AM 14.0 °F 0.5 °F 10.4 °F 86% 29.87 in 0.8 mi East 11.5 mph - 0.08 in Snow Light Snow
10:55 AM 14.0 °F 1.2 °F 10.4 °F 86% 29.88 in 0.8 mi ENE 10.4 mph - 0.21 in Snow Light Snow
11:15 AM 12.2 °F -1.8 °F 10.4 °F 92% 29.89 in 0.8 mi East 11.5 mph - 0.08 in Snow Light Snow
11:35 AM 14.0 °F -0.2 °F 10.4 °F 86% 29.88 in 1.5 mi East 12.7 mph - 0.15 in Snow Light Snow
11:55 AM 14.0 °F -0.2 °F 10.4 °F 86% 29.88 in 2.5 mi East 12.7 mph - 0.20 in Snow Light Snow
12:15 PM 14.0 °F -0.2 °F 10.4 °F 86% 29.87 in 1.8 mi East 12.7 mph - N/A Snow Light Snow
12:35 PM 14.0 °F -0.2 °F 10.4 °F 86% 29.87 in 3.0 mi East 12.7 mph - 0.01 in Snow Light Snow
12:55 PM 14.0 °F 1.2 °F 12.2 °F 93% 29.87 in 0.2 mi ENE 10.4 mph - 0.23 in Snow Heavy Snow
1:15 PM 14.0 °F -0.8 °F 12.2 °F 93% 29.87 in 2.5 mi ENE 13.8 mph - N/A Snow Light Snow
1:35 PM 14.0 °F -2.0 °F 10.4 °F 86% 29.87 in 8.0 mi ENE 16.1 mph - N/A   Mostly Cloudy
1:55 PM 14.0 °F -2.5 °F 10.4 °F 86% 29.87 in 10.0 mi ENE 17.3 mph - N/A   Overcast
2:15 PM 14.0 °F -3.0 °F 10.4 °F 86% 29.88 in 5.0 mi ENE 18.4 mph - N/A Snow Light Snow
2:35 PM 12.2 °F -5.3 °F 10.4 °F 92% 29.87 in 8.0 mi NE 18.4 mph - N/A   Overcast
2:55 PM 10.4 °F -7.2 °F 8.6 °F 92% 29.89 in 7.0 mi NE 17.3 mph - N/A   Overcast
3:35 PM 10.4 °F -5.4 °F 8.6 °F 92% 29.92 in 9.0 mi NE 13.8 mph - N/A   Overcast
3:55 PM 10.4 °F -7.2 °F 6.8 °F 85% 29.93 in 9.0 mi NE 17.3 mph - N/A   Overcast
4:15 PM 8.6 °F -9.5 °F 6.8 °F 92% 29.93 in 8.0 mi NE 17.3 mph - N/A   Overcast
4:35 PM 8.6 °F -10.5 °F 6.8 °F 92% 29.94 in 5.0 mi NE 19.6 mph 23.0 mph N/A   Overcast
4:55 PM 8.6 °F -9.5 °F 5.0 °F 85% 29.95 in 6.0 mi NE 17.3 mph - N/A   Overcast
5:15 PM 8.6 °F -10.5 °F 6.8 °F 92% 29.96 in 5.0 mi NE 19.6 mph 24.2 mph N/A   Overcast
5:35 PM 8.6 °F -8.9 °F 5.0 °F 85% 29.98 in 5.0 mi NE 16.1 mph - N/A Rain Light Freezing Rain
5:55 PM 8.6 °F -8.9 °F 5.0 °F 85% 29.99 in 7.0 mi NE 16.1 mph - N/A   Overcast
6:15 PM 6.8 °F -12.4 °F 5.0 °F 92% 30.00 in 9.0 mi NE 18.4 mph 21.9 mph N/A   Overcast
6:35 PM 6.8 °F -12.9 °F 5.0 °F 92% 30.00 in 8.0 mi NE 19.6 mph - N/A   Overcast
6:55 PM 6.8 °F -12.4 °F 5.0 °F 92% 30.02 in 10.0 mi NE 18.4 mph 21.9 mph N/A   Overcast
7:15 PM 6.8 °F -11.3 °F 5.0 °F 92% 30.02 in 10.0 mi NE 16.1 mph - N/A   Overcast
7:35 PM 6.8 °F -11.3 °F 5.0 °F 92% 30.03 in 9.0 mi NE 16.1 mph 21.9 mph N/A   Overcast
7:55 PM 6.8 °F -11.8 °F 5.0 °F 92% 30.04 in 10.0 mi NNE 17.3 mph - N/A   Overcast
8:15 PM 6.8 °F -11.3 °F 5.0 °F 92% 30.05 in 10.0 mi NE 16.1 mph 20.7 mph N/A   Overcast
8:35 PM 6.8 °F -10.7 °F 3.2 °F 85% 30.06 in 10.0 mi NNE 15.0 mph - N/A   Overcast
8:55 PM 5.0 °F -13.6 °F 1.4 °F 85% 30.06 in 10.0 mi NE 16.1 mph - N/A   Overcast
9:15 PM 5.0 °F -13.6 °F 1.4 °F 85% 30.06 in 10.0 mi NNE 16.1 mph - N/A   Overcast
9:35 PM 3.2 °F -14.6 °F -0.4 °F 85% 30.08 in 10.0 mi NNE 13.8 mph - N/A   Overcast
9:55 PM 1.4 °F -16.1 °F -0.4 °F 92% 30.08 in 8.0 mi NNE 12.7 mph - N/A   Overcast
10:15 PM 1.4 °F -16.1 °F -0.4 °F 92% 30.09 in 10.0 mi NNE 12.7 mph - N/A   Overcast
10:35 PM 1.4 °F -16.9 °F -0.4 °F 92% 30.09 in 10.0 mi NE 13.8 mph - N/A   Overcast
10:55 PM 1.4 °F -15.3 °F -0.4 °F 92% 30.11 in 10.0 mi NNE 11.5 mph - N/A   Overcast
11:15 PM 1.4 °F -14.5 °F -0.4 °F 92% 30.12 in 10.0 mi NNE 10.4 mph - N/A   Overcast
11:35 PM 1.4 °F -13.5 °F -0.4 °F 92% 30.12 in 10.0 mi NE 9.2 mph - N/A   Overcast
11:55 PM 1.4 °F -15.3 °F -0.4 °F 92% 30.11 in 10.0 mi NE 11.5 mph - N/A   Overcast